Regional Weather Roundup
Issued by NWS Sioux Falls, SD

Home | Current Version | Previous Version | Text Only | Print | Product List | Glossary Off
Versions: 1 2 3 4 5 6 7 8 9 10 11 12 13 14 15 16 17 18 19 20 21 22 23 24 25 26 27 28 29 30 31 32 33 34 35 36 37 38 39 40 41 42 43 44 45 46 47 48 49 50

000
ASUS43 KFSD 221102
RWRFSD

WEATHER ROUNDUP FOR SE SOUTH DAKOTA/SW MINNESOTA/NW IOWA
NATIONAL WEATHER SERVICE SIOUX FALLS SD
600 AM CDT TUE AUG 22 2017

NOTE: "FAIR" INDICATES FEW OR NO CLOUDS BELOW 12,000 FEET WITH NO
SIGNIFICANT WEATHER AND OR OBSTRUCTIONS TO VISIBILITY.


SDZ038>040-050-052>070-221200-
SOUTHEAST SOUTH DAKOTA

CITY           SKY/WX    TMP DP  RH WIND       PRES   REMARKS
BROOKINGS      CLEAR     51  49  92 CALM      30.11R
CHAMBERLAIN    CLEAR     52  50  92 W6        30.17R
HURON          CLEAR     46  45  96 W5        30.13R
MADISON        FAIR      50  50 100 NW8       30.12R
MITCHELL       CLEAR     50  48  93 NW5       30.14R
SIOUX FALLS    CLEAR     54  53  97 NW5       30.10R
WINNER         FAIR      53  50  89 SW6       30.19R
YANKTON        CLEAR     55  53  93 NW9       30.13R
$$

MNZ071-072-080-081-089-090-097-098-221200-
SOUTHWEST MINNESOTA

CITY           SKY/WX    TMP DP  RH WIND       PRES   REMARKS
FAIRMONT       CLEAR     57  54  89 NW12      30.02R
JACKSON        CLEAR     54  52  94 NW13G18   30.05R
LUVERNE        CLEAR     52  46  82 NW3       30.10R
MARSHALL       CLEAR     52  50  93 W8        30.08R
MONTEVIDEO     CLEAR     52  52 100 NW5       30.06R
PIPESTONE      CLEAR     54  50  87 NW5       30.09S
REDWOOD FALLS  CLEAR     55  52  89 NW8       30.03R
TRACY          CLEAR     55  53  93 NW8       30.07R
WINDOM         CLEAR     55  52  88 NW9       30.05R
WORTHINGTON    CLEAR     54  51  90 NW9       30.08R
$$

IAZ001>003-012>014-020>022-031-032-NEZ013-014-SDZ071-221200-
NORTHWEST IOWA

CITY           SKY/WX    TMP DP  RH WIND       PRES   REMARKS
CHEROKEE       CLEAR     58  58 100 NW7       30.07R
DENISON        CLEAR     61  61 100 NW5       30.08R
ESTHERVILLE    CLEAR     55  54  96 NW10      30.03R
ORANGE CITY    CLEAR     57  55  94 N8        30.08R
SHELDON        CLEAR     54  54 100 NW7       30.07R
SIOUX CITY     CLEAR     59  57  93 N6        30.09R
SPENCER        CLEAR     56  53  90 NW10      30.06R
STORM LAKE     CLEAR     57  55  94 N10       30.06R
$$

ABBREVIATIONS USED IN REMARKS
   TC - TEMPERATURE IN CELSIUS
  WCI - WIND CHILL INDEX
   HX - HEAT INDEX
  VSB - VISIBILITY





USA.gov is the U.S. government's official web portal to all federal, state and local government web resources and services.